Brightest
NORAD ID: 11672
Int'l Code: 1980-005B
Perigee: 603.7 km
Apogee: 626.8 km
Inclination: 82.5 °
Period: 96.9 minutes
Semi major axis: 6986 km
Launch date: January 23, 1980
Source: Commonwealth of Independent States (former USSR) (CIS)
Note: This is a ROCKET BODY
Two Line Element Set (TLE):
1 11672U 80005B 13139.81912774 .00000450 00000-0 47786-4 0 6965
2 11672 082.5181 044.1404 0016552 213.2528 209.4346 14.86752537802009
Source:
NASA's NSSDC Master Catalog entry for SL-14 R/B